Home   Weather   Medan   Past weeks

Flag for Indonesia Past Weather in Medan, North Sumatra, Indonesia — Yesterday and Last 2 Weeks

Now
79 °F

Fog.


Feels Like: 83 °F
Forecast: 76 / 87 °F
Wind: 3 mph from South

Location: Medan / Polonia

Current Time: Feb 23, 2017 at 5:17:59 am

Latest Report: Feb 23, 2017 at 4:30 am


Visibility: 1 mi

Pressure: 29.80 "Hg

Humidity: 94%

Dew Point: 77 °F

Location of MedanLocation

Past Weather in Medan — Graph

°F

Medan Temperature Yesterday

Maximum temperature yesterday: 88 °F (at 1:30 pm)
Minimum temperature yesterday: 75 °F (at 4:00 am)
Average temperature yesterday: 81 °F

High & Low Weather Summary for the Past Weeks

 TemperatureHumidityPressure
High88 °F (Feb 8, 11:30 am)100% (Feb 10, 4:30 am)30.01 "Hg (Feb 10, 4:30 am)
Low73 °F (Feb 11, 4:30 am)59% (Feb 8, 11:30 am)29.71 "Hg (Feb 20, 3:30 pm)
Average80 °F85%29.86 "Hg
* Reported Feb 8 4:00 am — Feb 23 4:00 am, Medan, Weather by CustomWeather, © 2017

Note: Actual official high and low records may vary slightly from our data, if they occured in-between our weather recording intervals... More about our weather records

Advertising

Medan Weather History for the Previous 24 Hours

Scroll right to see more
 ConditionsComfort  
Time TempWeatherWind HumidityBarometerVisibility
4:00 am
Thu, Feb 23
77 °FFog.No wind100%29.80 "Hg1 mi
3:30 am77 °FFog.No wind100%29.80 "Hg1 mi
3:00 am77 °FFog.No wind100%29.80 "Hg1 mi
2:30 am79 °FFog.No wind94%29.80 "Hg1 mi
2:00 am79 °FFog.5 mph94%29.83 "Hg1 mi
1:30 am79 °FFog.3 mph94%29.83 "Hg1 mi
1:00 am79 °FFog.5 mph94%29.86 "Hg1 mi
12:30 am79 °FFog.5 mph94%29.86 "Hg2 mi
12:00 am81 °FFog.3 mph89%29.86 "Hg2 mi
11:30 pm
Wed, Feb 22
81 °FFog.No wind94%29.86 "Hg2 mi
11:00 pm81 °FFog.6 mph89%29.86 "Hg1 mi
10:30 pm81 °FFog.5 mph89%29.86 "Hg2 mi
10:00 pm81 °FFog.3 mph89%29.86 "Hg2 mi
9:30 pm81 °FPassing clouds.3 mph94%29.86 "Hg3 mi
9:00 pm81 °FPassing clouds.No wind94%29.83 "Hg3 mi
8:30 pm82 °FPassing clouds.No wind89%29.83 "Hg3 mi
8:00 pm82 °FPassing clouds.No wind89%29.80 "Hg4 mi
7:30 pm82 °FPassing clouds.5 mph89%29.80 "Hg4 mi
7:00 pm82 °FPassing clouds.5 mph84%29.77 "Hg3 mi
6:30 pm84 °FScattered clouds.6 mph79%29.77 "Hg4 mi
6:00 pm84 °FScattered clouds.8 mph74%29.74 "Hg5 mi
5:30 pm84 °FScattered clouds.9 mph79%29.74 "Hg5 mi
5:00 pm84 °FScattered clouds.10 mph79%29.74 "Hg5 mi
4:30 pm86 °FScattered clouds.9 mph79%29.74 "Hg5 mi
4:00 pm86 °FScattered clouds.10 mph79%29.74 "Hg5 mi
3:30 pm86 °FScattered clouds.10 mph79%29.77 "Hg5 mi
3:00 pm86 °FScattered clouds.13 mph79%29.77 "Hg5 mi
2:30 pm86 °FScattered clouds.10 mph75%29.80 "Hg5 mi
2:00 pm88 °FScattered clouds.10 mph70%29.80 "Hg5 mi
1:30 pm88 °FScattered clouds.7 mph70%29.80 "Hg5 mi
1:00 pm86 °FScattered clouds.8 mph75%29.83 "Hg5 mi
12:30 pm86 °FScattered clouds.7 mph75%29.83 "Hg5 mi
12:00 pm86 °FScattered clouds.7 mph66%29.86 "Hg5 mi
11:30 am86 °FScattered clouds.7 mph70%29.86 "Hg5 mi
11:00 am86 °FScattered clouds.5 mph70%29.86 "Hg4 mi
10:30 am86 °FScattered clouds.5 mph75%29.86 "Hg4 mi
10:00 am84 °FScattered clouds.2 mph79%29.86 "Hg4 mi
9:30 am82 °FScattered clouds.3 mph84%29.86 "Hg3 mi
9:00 am81 °FScattered clouds.5 mph84%29.86 "Hg3 mi
8:30 am79 °FScattered clouds.2 mph89%29.86 "Hg2 mi
8:00 am77 °FScattered clouds.2 mph94%29.83 "Hg2 mi
7:30 am75 °FScattered clouds.5 mph94%29.83 "Hg3 mi
7:00 am75 °FFog.6 mph94%29.80 "Hg1 mi
6:30 am75 °FFog.5 mph100%29.80 "Hg1 mi
6:00 am75 °FFog.3 mph100%29.80 "Hg2 mi
5:30 am75 °FFog.No wind100%29.80 "Hg2 mi
5:00 am75 °FFog.3 mph100%29.80 "Hg2 mi
Weather by CustomWeather, © 2017

See weather overviewHow to use our weather pages